iso_date,epoch_date,Year,Hour,Min,DOY,POS_DOY,Lat,Lon,BP,Ts,Ta,has_bp,has_ts,has_ta,BuoyID,Buoy_Type,Buoy_Owner,Logistics,Hemisphere
2020-07-06T18:04:01Z,1594058642,2020,18,4,188.7528,188.7528,-90.0,-180.0,-999.00,5.11,-999.0,no,yes,no,300234066514020,SVPGHI,AOML,UNKNOWN,North
2020-07-06T19:01:03Z,1594062063,2020,19,1,188.7924,188.7924,61.091,-59.011,-999.00,5.13,-999.0,no,yes,no,300234066514020,SVPGHI,AOML,UNKNOWN,North
2020-07-06T19:59:57Z,1594065597,2020,20,0,188.8333,188.8333,61.093,-59.014,-999.00,5.14,-999.0,no,yes,no,300234066514020,SVPGHI,AOML,UNKNOWN,North
2020-07-06T21:00:00Z,1594069200,2020,21,0,188.875,188.875,61.092,-59.021,-999.00,5.16,-999.0,no,yes,no,300234066514020,SVPGHI,AOML,UNKNOWN,North
2020-07-06T22:00:02Z,1594072803,2020,22,0,188.9167,188.9167,61.094,-59.026,-999.00,5.17,-999.0,no,yes,no,300234066514020,SVPGHI,AOML,UNKNOWN,North
2020-07-06T22:59:57Z,1594076397,2020,23,0,188.9583,188.9583,61.098,-59.038,-999.00,5.17,-999.0,no,yes,no,300234066514020,SVPGHI,AOML,UNKNOWN,North
2020-07-07T00:00:00Z,1594080000,2020,0,0,189.0,189.0,61.093,-59.044,-999.00,5.17,-999.0,no,yes,no,300234066514020,SVPGHI,AOML,UNKNOWN,North
2020-07-07T01:01:03Z,1594083663,2020,1,1,189.0424,189.0424,61.088,-59.049,-999.00,5.16,-999.0,no,yes,no,300234066514020,SVPGHI,AOML,UNKNOWN,North
2020-07-07T01:59:57Z,1594087197,2020,2,0,189.0833,189.0833,61.083,-59.056,-999.00,5.15,-999.0,no,yes,no,300234066514020,SVPGHI,AOML,UNKNOWN,North
2020-07-07T03:00:00Z,1594090800,2020,3,0,189.125,189.125,61.077,-59.066,-999.00,5.15,-999.0,no,yes,no,300234066514020,SVPGHI,AOML,UNKNOWN,North
2020-07-07T04:00:02Z,1594094403,2020,4,0,189.1667,189.1667,61.073,-59.071,-999.00,5.16,-999.0,no,yes,no,300234066514020,SVPGHI,AOML,UNKNOWN,North
2020-07-07T04:59:57Z,1594097997,2020,5,0,189.2083,189.2083,61.069,-59.075,-999.00,5.19,-999.0,no,yes,no,300234066514020,SVPGHI,AOML,UNKNOWN,North
2020-07-07T06:01:00Z,1594101660,2020,6,1,189.2507,189.2507,61.064,-59.071,-999.00,5.2,-999.0,no,yes,no,300234066514020,SVPGHI,AOML,UNKNOWN,North
2020-07-07T07:00:02Z,1594105203,2020,7,0,189.2917,189.2917,61.059,-59.071,-999.00,5.19,-999.0,no,yes,no,300234066514020,SVPGHI,AOML,UNKNOWN,North
2020-07-07T07:59:57Z,1594108797,2020,8,0,189.3333,189.3333,61.056,-59.068,-999.00,5.19,-999.0,no,yes,no,300234066514020,SVPGHI,AOML,UNKNOWN,North
2020-07-07T09:00:00Z,1594112400,2020,9,0,189.375,189.375,61.051,-59.066,-999.00,5.19,-999.0,no,yes,no,300234066514020,SVPGHI,AOML,UNKNOWN,North
2020-07-07T10:00:02Z,1594116003,2020,10,0,189.4167,189.4167,61.045,-59.061,-999.00,5.2,-999.0,no,yes,no,300234066514020,SVPGHI,AOML,UNKNOWN,North
2020-07-07T10:59:57Z,1594119597,2020,11,0,189.4583,189.4583,61.039,-59.063,-999.00,5.24,-999.0,no,yes,no,300234066514020,SVPGHI,AOML,UNKNOWN,North
2020-07-07T12:00:00Z,1594123200,2020,12,0,189.5,189.5,61.031,-59.064,-999.00,5.27,-999.0,no,yes,no,300234066514020,SVPGHI,AOML,UNKNOWN,North
2020-07-07T13:00:02Z,1594126803,2020,13,0,189.5417,189.5417,61.022,-59.062,-999.00,5.43,-999.0,no,yes,no,300234066514020,SVPGHI,AOML,UNKNOWN,North
2020-07-07T13:59:57Z,1594130397,2020,14,0,189.5833,189.5833,61.016,-59.065,-999.00,5.56,-999.0,no,yes,no,300234066514020,SVPGHI,AOML,UNKNOWN,North
2020-07-07T15:00:00Z,1594134000,2020,15,0,189.625,189.625,61.011,-59.057,-999.00,5.62,-999.0,no,yes,no,300234066514020,SVPGHI,AOML,UNKNOWN,North
2020-07-07T16:00:02Z,1594137603,2020,16,0,189.6667,189.6667,61.006,-59.044,-999.00,5.69,-999.0,no,yes,no,300234066514020,SVPGHI,AOML,UNKNOWN,North
2020-07-07T16:59:57Z,1594141197,2020,17,0,189.7083,189.7083,61.001,-59.025,-999.00,5.85,-999.0,no,yes,no,300234066514020,SVPGHI,AOML,UNKNOWN,North
2020-07-07T18:00:00Z,1594144800,2020,18,0,189.75,189.75,60.999,-59.005,-999.00,5.9,-999.0,no,yes,no,300234066514020,SVPGHI,AOML,UNKNOWN,North
2020-07-07T19:00:02Z,1594148403,2020,19,0,189.7917,189.7917,60.999,-58.983,-999.00,5.83,-999.0,no,yes,no,300234066514020,SVPGHI,AOML,UNKNOWN,North
2020-07-07T19:59:57Z,1594151997,2020,20,0,189.8333,189.8333,60.999,-58.968,-999.00,5.74,-999.0,no,yes,no,300234066514020,SVPGHI,AOML,UNKNOWN,North
2020-07-07T21:00:00Z,1594155600,2020,21,0,189.875,189.875,61.0,-58.955,-999.00,5.65,-999.0,no,yes,no,300234066514020,SVPGHI,AOML,UNKNOWN,North
2020-07-07T22:00:02Z,1594159203,2020,22,0,189.9167,189.9167,61.003,-58.942,-999.00,5.79,-999.0,no,yes,no,300234066514020,SVPGHI,AOML,UNKNOWN,North
2020-07-07T22:59:57Z,1594162797,2020,23,0,189.9583,189.9583,61.006,-58.931,-999.00,5.74,-999.0,no,yes,no,300234066514020,SVPGHI,AOML,UNKNOWN,North
2020-07-08T00:00:00Z,1594166400,2020,0,0,190.0,190.0,61.009,-58.925,-999.00,5.72,-999.0,no,yes,no,300234066514020,SVPGHI,AOML,UNKNOWN,North
2020-07-08T01:00:02Z,1594170003,2020,1,0,190.0417,190.0417,61.015,-58.924,-999.00,5.65,-999.0,no,yes,no,300234066514020,SVPGHI,AOML,UNKNOWN,North
2020-07-08T01:59:57Z,1594173597,2020,2,0,190.0833,190.0833,61.021,-58.923,-999.00,5.62,-999.0,no,yes,no,300234066514020,SVPGHI,AOML,UNKNOWN,North
2020-07-08T03:00:00Z,1594177200,2020,3,0,190.125,190.125,61.027,-58.92,-999.00,5.62,-999.0,no,yes,no,300234066514020,SVPGHI,AOML,UNKNOWN,North
2020-07-08T04:00:02Z,1594180803,2020,4,0,190.1667,190.1667,61.035,-58.911,-999.00,5.6,-999.0,no,yes,no,300234066514020,SVPGHI,AOML,UNKNOWN,North
2020-07-08T04:59:57Z,1594184397,2020,5,0,190.2083,190.2083,61.043,-58.901,-999.00,5.58,-999.0,no,yes,no,300234066514020,SVPGHI,AOML,UNKNOWN,North
2020-07-08T06:00:00Z,1594188000,2020,6,0,190.25,190.25,61.049,-58.885,-999.00,5.59,-999.0,no,yes,no,300234066514020,SVPGHI,AOML,UNKNOWN,North
2020-07-08T07:00:02Z,1594191603,2020,7,0,190.2917,190.2917,61.054,-58.88,-999.00,5.61,-999.0,no,yes,no,300234066514020,SVPGHI,AOML,UNKNOWN,North
2020-07-08T07:59:57Z,1594195197,2020,8,0,190.3333,190.3333,61.062,-58.884,-999.00,5.56,-999.0,no,yes,no,300234066514020,SVPGHI,AOML,UNKNOWN,North
2020-07-08T09:00:00Z,1594198800,2020,9,0,190.375,190.375,61.075,-58.89,-999.00,5.56,-999.0,no,yes,no,300234066514020,SVPGHI,AOML,UNKNOWN,North
2020-07-08T10:00:02Z,1594202403,2020,10,0,190.4167,190.4167,61.082,-58.902,-999.00,5.58,-999.0,no,yes,no,300234066514020,SVPGHI,AOML,UNKNOWN,North
2020-07-08T10:59:57Z,1594205997,2020,11,0,190.4583,190.4583,61.091,-58.91,-999.00,5.62,-999.0,no,yes,no,300234066514020,SVPGHI,AOML,UNKNOWN,North
2020-07-08T12:00:00Z,1594209600,2020,12,0,190.5,190.5,61.097,-58.926,-999.00,5.63,-999.0,no,yes,no,300234066514020,SVPGHI,AOML,UNKNOWN,North
2020-07-08T13:00:02Z,1594213203,2020,13,0,190.5417,190.5417,61.1,-58.943,-999.00,5.64,-999.0,no,yes,no,300234066514020,SVPGHI,AOML,UNKNOWN,North
2020-07-08T13:59:57Z,1594216797,2020,14,0,190.5833,190.5833,61.105,-58.959,-999.00,5.66,-999.0,no,yes,no,300234066514020,SVPGHI,AOML,UNKNOWN,North
2020-07-08T15:00:00Z,1594220400,2020,15,0,190.625,190.625,61.109,-58.983,-999.00,5.63,-999.0,no,yes,no,300234066514020,SVPGHI,AOML,UNKNOWN,North
2020-07-08T16:00:02Z,1594224003,2020,16,0,190.6667,190.6667,61.113,-58.995,-999.00,5.63,-999.0,no,yes,no,300234066514020,SVPGHI,AOML,UNKNOWN,North
2020-07-08T16:59:57Z,1594227597,2020,17,0,190.7083,190.7083,61.117,-59.005,-999.00,5.65,-999.0,no,yes,no,300234066514020,SVPGHI,AOML,UNKNOWN,North
2020-07-08T18:04:01Z,1594231442,2020,18,4,190.7528,190.7528,61.117,-59.013,-999.00,5.66,-999.0,no,yes,no,300234066514020,SVPGHI,AOML,UNKNOWN,North
2020-07-08T19:00:02Z,1594234803,2020,19,0,190.7917,190.7917,61.115,-59.019,-999.00,5.68,-999.0,no,yes,no,300234066514020,SVPGHI,AOML,UNKNOWN,North
2020-07-08T19:59:57Z,1594238397,2020,20,0,190.8333,190.8333,61.114,-59.032,-999.00,5.71,-999.0,no,yes,no,300234066514020,SVPGHI,AOML,UNKNOWN,North
2020-07-08T21:00:00Z,1594242000,2020,21,0,190.875,190.875,61.111,-59.053,-999.00,5.67,-999.0,no,yes,no,300234066514020,SVPGHI,AOML,UNKNOWN,North
2020-07-08T22:00:02Z,1594245603,2020,22,0,190.9167,190.9167,61.112,-59.082,-999.00,5.68,-999.0,no,yes,no,300234066514020,SVPGHI,AOML,UNKNOWN,North
2020-07-08T23:01:58Z,1594249318,2020,23,2,190.9597,190.9597,61.112,-59.101,-999.00,5.66,-999.0,no,yes,no,300234066514020,SVPGHI,AOML,UNKNOWN,North
2020-07-09T00:00:00Z,1594252800,2020,0,0,191.0,191.0,61.115,-59.113,-999.00,5.64,-999.0,no,yes,no,300234066514020,SVPGHI,AOML,UNKNOWN,North
2020-07-09T01:00:02Z,1594256403,2020,1,0,191.0417,191.0417,61.11,-59.129,-999.00,5.56,-999.0,no,yes,no,300234066514020,SVPGHI,AOML,UNKNOWN,North
2020-07-09T01:59:57Z,1594259997,2020,2,0,191.0833,191.0833,61.102,-59.15,-999.00,5.54,-999.0,no,yes,no,300234066514020,SVPGHI,AOML,UNKNOWN,North
2020-07-09T03:02:00Z,1594263721,2020,3,2,191.1264,191.1264,61.098,-59.17,-999.00,5.54,-999.0,no,yes,no,300234066514020,SVPGHI,AOML,UNKNOWN,North
2020-07-09T04:00:02Z,1594267203,2020,4,0,191.1667,191.1667,61.091,-59.181,-999.00,5.54,-999.0,no,yes,no,300234066514020,SVPGHI,AOML,UNKNOWN,North
2020-07-09T04:59:57Z,1594270797,2020,5,0,191.2083,191.2083,61.081,-59.19,-999.00,5.55,-999.0,no,yes,no,300234066514020,SVPGHI,AOML,UNKNOWN,North
2020-07-09T06:00:00Z,1594274400,2020,6,0,191.25,191.25,61.072,-59.194,-999.00,5.57,-999.0,no,yes,no,300234066514020,SVPGHI,AOML,UNKNOWN,North
2020-07-09T07:00:02Z,1594278003,2020,7,0,191.2917,191.2917,61.062,-59.197,-999.00,5.53,-999.0,no,yes,no,300234066514020,SVPGHI,AOML,UNKNOWN,North
2020-07-09T07:59:57Z,1594281597,2020,8,0,191.3333,191.3333,61.053,-59.202,-999.00,5.52,-999.0,no,yes,no,300234066514020,SVPGHI,AOML,UNKNOWN,North
2020-07-09T09:01:00Z,1594285260,2020,9,1,191.3757,191.3757,61.052,-59.205,-999.00,5.54,-999.0,no,yes,no,300234066514020,SVPGHI,AOML,UNKNOWN,North
2020-07-09T10:00:02Z,1594288803,2020,10,0,191.4167,191.4167,61.045,-59.202,-999.00,5.57,-999.0,no,yes,no,300234066514020,SVPGHI,AOML,UNKNOWN,North
2020-07-09T10:59:57Z,1594292397,2020,11,0,191.4583,191.4583,61.028,-59.203,-999.00,5.58,-999.0,no,yes,no,300234066514020,SVPGHI,AOML,UNKNOWN,North
2020-07-09T12:00:00Z,1594296000,2020,12,0,191.5,191.5,61.019,-59.211,-999.00,5.6,-999.0,no,yes,no,300234066514020,SVPGHI,AOML,UNKNOWN,North
2020-07-09T13:01:03Z,1594299663,2020,13,1,191.5424,191.5424,61.001,-59.22,-999.00,5.62,-999.0,no,yes,no,300234066514020,SVPGHI,AOML,UNKNOWN,North
2020-07-09T13:59:57Z,1594303197,2020,14,0,191.5833,191.5833,60.995,-59.236,-999.00,5.64,-999.0,no,yes,no,300234066514020,SVPGHI,AOML,UNKNOWN,North
2020-07-09T15:00:00Z,1594306800,2020,15,0,191.625,191.625,60.982,-59.243,-999.00,5.64,-999.0,no,yes,no,300234066514020,SVPGHI,AOML,UNKNOWN,North
2020-07-09T16:00:02Z,1594310403,2020,16,0,191.6667,191.6667,60.975,-59.243,-999.00,5.62,-999.0,no,yes,no,300234066514020,SVPGHI,AOML,UNKNOWN,North
2020-07-09T16:59:57Z,1594313997,2020,17,0,191.7083,191.7083,60.971,-59.244,-999.00,5.56,-999.0,no,yes,no,300234066514020,SVPGHI,AOML,UNKNOWN,North
2020-07-09T18:04:01Z,1594317842,2020,18,4,191.7528,191.7528,60.965,-59.225,-999.00,5.56,-999.0,no,yes,no,300234066514020,SVPGHI,AOML,UNKNOWN,North
2020-07-09T19:01:03Z,1594321263,2020,19,1,191.7924,191.7924,60.958,-59.2,-999.00,5.6,-999.0,no,yes,no,300234066514020,SVPGHI,AOML,UNKNOWN,North
2020-07-09T19:59:57Z,1594324797,2020,20,0,191.8333,191.8333,60.949,-59.177,-999.00,5.63,-999.0,no,yes,no,300234066514020,SVPGHI,AOML,UNKNOWN,North
2020-07-09T21:00:00Z,1594328400,2020,21,0,191.875,191.875,60.937,-59.149,-999.00,5.63,-999.0,no,yes,no,300234066514020,SVPGHI,AOML,UNKNOWN,North
2020-07-09T22:03:56Z,1594332236,2020,22,4,191.9194,191.9194,60.923,-59.133,-999.00,5.61,-999.0,no,yes,no,300234066514020,SVPGHI,AOML,UNKNOWN,North
2020-07-09T23:03:59Z,1594335839,2020,23,4,191.9611,191.9611,60.911,-59.121,-999.00,5.6,-999.0,no,yes,no,300234066514020,SVPGHI,AOML,UNKNOWN,North
2020-07-10T00:00:00Z,1594339200,2020,0,0,192.0,192.0,60.908,-59.123,-999.00,5.58,-999.0,no,yes,no,300234066514020,SVPGHI,AOML,UNKNOWN,North
2020-07-10T01:00:02Z,1594342803,2020,1,0,192.0417,192.0417,60.904,-59.122,-999.00,5.57,-999.0,no,yes,no,300234066514020,SVPGHI,AOML,UNKNOWN,North
2020-07-10T01:59:57Z,1594346397,2020,2,0,192.0833,192.0833,60.903,-59.119,-999.00,5.56,-999.0,no,yes,no,300234066514020,SVPGHI,AOML,UNKNOWN,North
2020-07-10T03:00:00Z,1594350000,2020,3,0,192.125,192.125,60.903,-59.112,-999.00,5.5,-999.0,no,yes,no,300234066514020,SVPGHI,AOML,UNKNOWN,North
2020-07-10T04:01:03Z,1594353663,2020,4,1,192.1674,192.1674,60.906,-59.099,-999.00,5.5,-999.0,no,yes,no,300234066514020,SVPGHI,AOML,UNKNOWN,North
2020-07-10T04:59:57Z,1594357197,2020,5,0,192.2083,192.2083,60.909,-59.077,-999.00,5.48,-999.0,no,yes,no,300234066514020,SVPGHI,AOML,UNKNOWN,North
2020-07-10T06:00:00Z,1594360800,2020,6,0,192.25,192.25,60.912,-59.049,-999.00,5.48,-999.0,no,yes,no,300234066514020,SVPGHI,AOML,UNKNOWN,North
2020-07-10T07:00:02Z,1594364403,2020,7,0,192.2917,192.2917,60.912,-59.01,-999.00,5.44,-999.0,no,yes,no,300234066514020,SVPGHI,AOML,UNKNOWN,North
2020-07-10T07:59:57Z,1594367997,2020,8,0,192.3333,192.3333,60.908,-58.981,-999.00,5.44,-999.0,no,yes,no,300234066514020,SVPGHI,AOML,UNKNOWN,North
2020-07-10T09:00:00Z,1594371600,2020,9,0,192.375,192.375,60.908,-58.948,-999.00,5.42,-999.0,no,yes,no,300234066514020,SVPGHI,AOML,UNKNOWN,North
2020-07-10T10:01:03Z,1594375263,2020,10,1,192.4174,192.4174,60.902,-58.928,-999.00,5.43,-999.0,no,yes,no,300234066514020,SVPGHI,AOML,UNKNOWN,North
2020-07-10T10:59:57Z,1594378797,2020,11,0,192.4583,192.4583,60.904,-58.931,-999.00,5.45,-999.0,no,yes,no,300234066514020,SVPGHI,AOML,UNKNOWN,North
2020-07-10T12:01:00Z,1594382460,2020,12,1,192.5007,192.5007,60.904,-58.931,-999.00,5.53,-999.0,no,yes,no,300234066514020,SVPGHI,AOML,UNKNOWN,North
2020-07-10T13:02:03Z,1594386124,2020,13,2,192.5431,192.5431,60.911,-58.945,-999.00,5.59,-999.0,no,yes,no,300234066514020,SVPGHI,AOML,UNKNOWN,North
2020-07-10T13:59:57Z,1594389597,2020,14,0,192.5833,192.5833,60.923,-58.95,-999.00,5.76,-999.0,no,yes,no,300234066514020,SVPGHI,AOML,UNKNOWN,North
2020-07-10T15:01:00Z,1594393260,2020,15,1,192.6257,192.6257,60.935,-58.943,-999.00,5.69,-999.0,no,yes,no,300234066514020,SVPGHI,AOML,UNKNOWN,North
2020-07-10T16:02:03Z,1594396924,2020,16,2,192.6681,192.6681,60.945,-58.928,-999.00,5.73,-999.0,no,yes,no,300234066514020,SVPGHI,AOML,UNKNOWN,North
2020-07-10T16:59:57Z,1594400397,2020,17,0,192.7083,192.7083,60.957,-58.911,-999.00,5.75,-999.0,no,yes,no,300234066514020,SVPGHI,AOML,UNKNOWN,North
2020-07-10T18:00:00Z,1594404000,2020,18,0,192.75,192.75,60.964,-58.895,-999.00,5.77,-999.0,no,yes,no,300234066514020,SVPGHI,AOML,UNKNOWN,North
2020-07-10T19:00:02Z,1594407603,2020,19,0,192.7917,192.7917,60.967,-58.884,-999.00,5.79,-999.0,no,yes,no,300234066514020,SVPGHI,AOML,UNKNOWN,North
2020-07-10T19:59:57Z,1594411197,2020,20,0,192.8333,192.8333,60.973,-58.878,-999.00,5.79,-999.0,no,yes,no,300234066514020,SVPGHI,AOML,UNKNOWN,North
2020-07-10T21:01:00Z,1594414860,2020,21,1,192.8757,192.8757,60.975,-58.873,-999.00,5.78,-999.0,no,yes,no,300234066514020,SVPGHI,AOML,UNKNOWN,North
2020-07-10T22:00:02Z,1594418403,2020,22,0,192.9167,192.9167,60.982,-58.875,-999.00,5.64,-999.0,no,yes,no,300234066514020,SVPGHI,AOML,UNKNOWN,North
2020-07-10T22:59:57Z,1594421997,2020,23,0,192.9583,192.9583,60.991,-58.891,-999.00,5.52,-999.0,no,yes,no,300234066514020,SVPGHI,AOML,UNKNOWN,North
2020-07-11T00:01:00Z,1594425660,2020,0,1,193.0007,193.0007,61.002,-58.899,-999.00,5.45,-999.0,no,yes,no,300234066514020,SVPGHI,AOML,UNKNOWN,North
2020-07-11T01:00:02Z,1594429203,2020,1,0,193.0417,193.0417,61.013,-58.908,-999.00,5.54,-999.0,no,yes,no,300234066514020,SVPGHI,AOML,UNKNOWN,North
2020-07-11T01:59:57Z,1594432797,2020,2,0,193.0833,193.0833,61.025,-58.923,-999.00,5.44,-999.0,no,yes,no,300234066514020,SVPGHI,AOML,UNKNOWN,North
2020-07-11T03:00:00Z,1594436400,2020,3,0,193.125,193.125,61.035,-58.939,-999.00,5.42,-999.0,no,yes,no,300234066514020,SVPGHI,AOML,UNKNOWN,North
2020-07-11T04:00:02Z,1594440003,2020,4,0,193.1667,193.1667,61.044,-58.965,-999.00,5.41,-999.0,no,yes,no,300234066514020,SVPGHI,AOML,UNKNOWN,North
2020-07-11T04:59:57Z,1594443597,2020,5,0,193.2083,193.2083,61.05,-58.978,-999.00,5.51,-999.0,no,yes,no,300234066514020,SVPGHI,AOML,UNKNOWN,North
2020-07-11T06:00:00Z,1594447200,2020,6,0,193.25,193.25,61.055,-58.991,-999.00,5.49,-999.0,no,yes,no,300234066514020,SVPGHI,AOML,UNKNOWN,North
2020-07-11T07:00:02Z,1594450803,2020,7,0,193.2917,193.2917,61.056,-59.005,-999.00,5.46,-999.0,no,yes,no,300234066514020,SVPGHI,AOML,UNKNOWN,North
2020-07-11T07:59:57Z,1594454397,2020,8,0,193.3333,193.3333,61.059,-59.019,-999.00,5.45,-999.0,no,yes,no,300234066514020,SVPGHI,AOML,UNKNOWN,North
2020-07-11T09:00:00Z,1594458000,2020,9,0,193.375,193.375,61.059,-59.039,-999.00,5.47,-999.0,no,yes,no,300234066514020,SVPGHI,AOML,UNKNOWN,North
2020-07-11T10:01:03Z,1594461663,2020,10,1,193.4174,193.4174,61.061,-59.064,-999.00,5.46,-999.0,no,yes,no,300234066514020,SVPGHI,AOML,UNKNOWN,North
2020-07-11T10:59:57Z,1594465197,2020,11,0,193.4583,193.4583,61.062,-59.09,-999.00,5.57,-999.0,no,yes,no,300234066514020,SVPGHI,AOML,UNKNOWN,North
2020-07-11T12:00:00Z,1594468800,2020,12,0,193.5,193.5,61.066,-59.09,-999.00,5.55,-999.0,no,yes,no,300234066514020,SVPGHI,AOML,UNKNOWN,North
2020-07-11T13:02:55Z,1594472576,2020,13,3,193.5437,193.5437,61.07,-59.057,-999.00,5.66,-999.0,no,yes,no,300234066514020,SVPGHI,AOML,UNKNOWN,North
2020-07-11T14:01:58Z,1594476118,2020,14,2,193.5847,193.5847,61.061,-59.099,-999.00,5.59,-999.0,no,yes,no,300234066514020,SVPGHI,AOML,UNKNOWN,North
2020-07-11T15:01:00Z,1594479660,2020,15,1,193.6257,193.6257,61.061,-59.124,-999.00,5.89,-999.0,no,yes,no,300234066514020,SVPGHI,AOML,UNKNOWN,North
2020-07-11T16:00:02Z,1594483203,2020,16,0,193.6667,193.6667,61.06,-59.152,-999.00,6.02,-999.0,no,yes,no,300234066514020,SVPGHI,AOML,UNKNOWN,North
2020-07-11T16:59:57Z,1594486797,2020,17,0,193.7083,193.7083,61.059,-59.179,-999.00,5.87,-999.0,no,yes,no,300234066514020,SVPGHI,AOML,UNKNOWN,North
2020-07-11T18:01:00Z,1594490460,2020,18,1,193.7507,193.7507,61.056,-59.198,-999.00,5.75,-999.0,no,yes,no,300234066514020,SVPGHI,AOML,UNKNOWN,North
2020-07-11T19:00:02Z,1594494003,2020,19,0,193.7917,193.7917,61.053,-59.206,-999.00,5.69,-999.0,no,yes,no,300234066514020,SVPGHI,AOML,UNKNOWN,North
2020-07-11T19:59:57Z,1594497597,2020,20,0,193.8333,193.8333,61.048,-59.222,-999.00,5.76,-999.0,no,yes,no,300234066514020,SVPGHI,AOML,UNKNOWN,North
2020-07-11T21:00:00Z,1594501200,2020,21,0,193.875,193.875,61.044,-59.23,-999.00,5.84,-999.0,no,yes,no,300234066514020,SVPGHI,AOML,UNKNOWN,North
2020-07-11T22:00:02Z,1594504803,2020,22,0,193.9167,193.9167,61.042,-59.24,-999.00,6.03,-999.0,no,yes,no,300234066514020,SVPGHI,AOML,UNKNOWN,North
2020-07-11T22:59:57Z,1594508397,2020,23,0,193.9583,193.9583,61.036,-59.233,-999.00,5.77,-999.0,no,yes,no,300234066514020,SVPGHI,AOML,UNKNOWN,North
2020-07-12T00:00:00Z,1594512000,2020,0,0,194.0,194.0,61.029,-59.244,-999.00,5.76,-999.0,no,yes,no,300234066514020,SVPGHI,AOML,UNKNOWN,North
2020-07-12T01:00:02Z,1594515603,2020,1,0,194.0417,194.0417,61.026,-59.257,-999.00,5.73,-999.0,no,yes,no,300234066514020,SVPGHI,AOML,UNKNOWN,North
2020-07-12T02:03:59Z,1594519439,2020,2,4,194.0861,194.0861,61.013,-59.28,-999.00,5.71,-999.0,no,yes,no,300234066514020,SVPGHI,AOML,UNKNOWN,North
2020-07-12T03:00:00Z,1594522800,2020,3,0,194.125,194.125,61.002,-59.303,-999.00,5.69,-999.0,no,yes,no,300234066514020,SVPGHI,AOML,UNKNOWN,North
2020-07-12T04:00:02Z,1594526403,2020,4,0,194.1667,194.1667,60.997,-59.333,-999.00,5.67,-999.0,no,yes,no,300234066514020,SVPGHI,AOML,UNKNOWN,North
2020-07-12T04:59:57Z,1594529997,2020,5,0,194.2083,194.2083,60.991,-59.355,-999.00,5.65,-999.0,no,yes,no,300234066514020,SVPGHI,AOML,UNKNOWN,North
2020-07-12T06:00:00Z,1594533600,2020,6,0,194.25,194.25,60.988,-59.373,-999.00,5.63,-999.0,no,yes,no,300234066514020,SVPGHI,AOML,UNKNOWN,North
2020-07-12T07:00:02Z,1594537203,2020,7,0,194.2917,194.2917,60.988,-59.374,-999.00,5.62,-999.0,no,yes,no,300234066514020,SVPGHI,AOML,UNKNOWN,North
2020-07-12T07:59:57Z,1594540797,2020,8,0,194.3333,194.3333,60.986,-59.362,-999.00,5.61,-999.0,no,yes,no,300234066514020,SVPGHI,AOML,UNKNOWN,North
2020-07-12T09:00:00Z,1594544400,2020,9,0,194.375,194.375,60.974,-59.35,-999.00,5.61,-999.0,no,yes,no,300234066514020,SVPGHI,AOML,UNKNOWN,North
2020-07-12T10:00:02Z,1594548003,2020,10,0,194.4167,194.4167,60.968,-59.327,-999.00,5.58,-999.0,no,yes,no,300234066514020,SVPGHI,AOML,UNKNOWN,North
2020-07-12T10:59:57Z,1594551597,2020,11,0,194.4583,194.4583,60.947,-59.317,-999.00,5.45,-999.0,no,yes,no,300234066514020,SVPGHI,AOML,UNKNOWN,North
2020-07-12T12:00:00Z,1594555200,2020,12,0,194.5,194.5,60.924,-59.318,-999.00,5.38,-999.0,no,yes,no,300234066514020,SVPGHI,AOML,UNKNOWN,North
2020-07-12T13:00:02Z,1594558803,2020,13,0,194.5417,194.5417,60.905,-59.332,-999.00,5.4,-999.0,no,yes,no,300234066514020,SVPGHI,AOML,UNKNOWN,North
2020-07-12T14:02:58Z,1594562579,2020,14,3,194.5854,194.5854,60.896,-59.356,-999.00,5.4,-999.0,no,yes,no,300234066514020,SVPGHI,AOML,UNKNOWN,North
2020-07-12T15:00:00Z,1594566000,2020,15,0,194.625,194.625,60.888,-59.379,-999.00,5.33,-999.0,no,yes,no,300234066514020,SVPGHI,AOML,UNKNOWN,North
2020-07-12T16:00:02Z,1594569603,2020,16,0,194.6667,194.6667,60.886,-59.401,-999.00,5.41,-999.0,no,yes,no,300234066514020,SVPGHI,AOML,UNKNOWN,North
2020-07-12T16:59:57Z,1594573197,2020,17,0,194.7083,194.7083,60.886,-59.415,-999.00,5.49,-999.0,no,yes,no,300234066514020,SVPGHI,AOML,UNKNOWN,North
2020-07-12T18:01:00Z,1594576860,2020,18,1,194.7507,194.7507,60.892,-59.413,-999.00,5.41,-999.0,no,yes,no,300234066514020,SVPGHI,AOML,UNKNOWN,North
2020-07-12T19:00:02Z,1594580403,2020,19,0,194.7917,194.7917,60.904,-59.39,-999.00,5.5,-999.0,no,yes,no,300234066514020,SVPGHI,AOML,UNKNOWN,North
2020-07-12T19:59:57Z,1594583997,2020,20,0,194.8333,194.8333,60.899,-59.358,-999.00,5.46,-999.0,no,yes,no,300234066514020,SVPGHI,AOML,UNKNOWN,North
2020-07-12T21:04:01Z,1594587842,2020,21,4,194.8778,194.8778,60.886,-59.32,-999.00,5.51,-999.0,no,yes,no,300234066514020,SVPGHI,AOML,UNKNOWN,North
2020-07-12T22:00:02Z,1594591203,2020,22,0,194.9167,194.9167,60.867,-59.291,-999.00,5.52,-999.0,no,yes,no,300234066514020,SVPGHI,AOML,UNKNOWN,North
2020-07-12T23:00:57Z,1594594858,2020,23,1,194.959,194.959,60.844,-59.273,-999.00,5.5,-999.0,no,yes,no,300234066514020,SVPGHI,AOML,UNKNOWN,North
2020-07-13T00:00:00Z,1594598400,2020,0,0,195.0,195.0,60.824,-59.266,-999.00,5.41,-999.0,no,yes,no,300234066514020,SVPGHI,AOML,UNKNOWN,North
2020-07-13T01:00:02Z,1594602003,2020,1,0,195.0417,195.0417,60.804,-59.278,-999.00,5.35,-999.0,no,yes,no,300234066514020,SVPGHI,AOML,UNKNOWN,North
2020-07-13T01:59:57Z,1594605597,2020,2,0,195.0833,195.0833,60.796,-59.304,-999.00,5.35,-999.0,no,yes,no,300234066514020,SVPGHI,AOML,UNKNOWN,North
2020-07-13T03:00:00Z,1594609200,2020,3,0,195.125,195.125,60.794,-59.327,-999.00,5.33,-999.0,no,yes,no,300234066514020,SVPGHI,AOML,UNKNOWN,North
2020-07-13T04:03:56Z,1594613036,2020,4,4,195.1694,195.1694,-90.0,-180.0,-999.00,5.3,-999.0,no,yes,no,300234066514020,SVPGHI,AOML,UNKNOWN,North
2020-07-13T05:02:58Z,1594616579,2020,5,3,195.2104,195.2104,60.815,-59.34,-999.00,5.26,-999.0,no,yes,no,300234066514020,SVPGHI,AOML,UNKNOWN,North
2020-07-13T06:00:00Z,1594620000,2020,6,0,195.25,195.25,60.822,-59.32,-999.00,5.25,-999.0,no,yes,no,300234066514020,SVPGHI,AOML,UNKNOWN,North
2020-07-13T07:00:02Z,1594623603,2020,7,0,195.2917,195.2917,60.822,-59.293,-999.00,5.21,-999.0,no,yes,no,300234066514020,SVPGHI,AOML,UNKNOWN,North
2020-07-13T09:04:01Z,1594631042,2020,9,4,195.3778,195.3778,60.808,-59.207,-999.00,5.21,-999.0,no,yes,no,300234066514020,SVPGHI,AOML,UNKNOWN,North
2020-07-13T10:00:02Z,1594634403,2020,10,0,195.4167,195.4167,60.79,-59.178,-999.00,5.2,-999.0,no,yes,no,300234066514020,SVPGHI,AOML,UNKNOWN,North
2020-07-13T11:00:57Z,1594638058,2020,11,1,195.459,195.459,60.77,-59.156,-999.00,5.2,-999.0,no,yes,no,300234066514020,SVPGHI,AOML,UNKNOWN,North
2020-07-13T12:00:00Z,1594641600,2020,12,0,195.5,195.5,60.757,-59.161,-999.00,5.17,-999.0,no,yes,no,300234066514020,SVPGHI,AOML,UNKNOWN,North
2020-07-13T13:00:02Z,1594645203,2020,13,0,195.5417,195.5417,60.754,-59.168,-999.00,5.16,-999.0,no,yes,no,300234066514020,SVPGHI,AOML,UNKNOWN,North
2020-07-13T15:02:00Z,1594652521,2020,15,2,195.6264,195.6264,60.751,-59.18,-999.00,5.23,-999.0,no,yes,no,300234066514020,SVPGHI,AOML,UNKNOWN,North